Weather History for Litchfield, MN

Change the Weather History Date:

Monday, March 4, 2013

  Actual Average Record
Temperature  
Mean Temperature 24 °F -  
Max Temperature 26 °F 35 °F 60 °F (1983)
Min Temperature 23 °F 16 °F -12 °F (1952)
Degree Days  
Heating Degree Days 40    
Moisture  
Dew Point 22 °F    
Average Humidity 90    
Maximum Humidity 100    
Minimum Humidity 64    
Precipitation  
Precipitation 0.00 in - - ()
Sea Level Pressure  
Sea Level Pressure 29.92 in    
Wind  
Wind Speed 15 mph (ESE)    
Max Wind Speed 22 mph    
Max Gust Speed 26 mph    
Visibility 4 miles    
Events Snow    
Averages and records for this station are not official NWS values.
T = Trace of Precipitation, MM = Missing Value Source: NWS Daily Summary

Daily Weather History Graph

Daily Weather History Graph

Search for Another Location

Airport:

Trip Planner

Search our weather history database for the weather conditions in past years. The results will help you decide how hot, cold, wet, or windy it might be!

Date:

Astronomy

Mar. 04, 2013 Rise Set
Actual Time 6:50 AM CST 6:09 PM CST
Civil Twilight 6:20 AM CST 6:39 PM CST
Nautical Twilight 5:46 AM CST 7:13 PM CST
Astronomical Twilight 5:12 AM CST 7:47 PM CST
Moon 1:11 AM CST (3/4) 10:40 AM CST (3/4)
Length of Visible Light 12h 18m
Length of Day
11h 19m
Waning Gibbous, 52% of the Moon is Illuminated
Mar 4
Waning Gibbous
Mar 4
Last Quarter
Mar 11
New
Mar 19
First Quarter
Mar 27
Full

Hourly Weather History & Observations

Time (CST) Temp. Windchill Dew Point Humidity Pressure Visibility Wind Dir Wind Speed Gust Speed Precip Events Conditions
12:13 AM 26.6 °F 15.7 °F 15.8 °F 64% 29.94 in 7.0 mi SSE 12.7 mph 24.2 mph N/A Snow Light Snow
12:32 AM 26.6 °F 15.7 °F 17.6 °F 69% 29.94 in 4.0 mi SE 12.7 mph 17.3 mph N/A Snow Light Snow
12:53 AM 24.8 °F 13.4 °F 21.2 °F 86% 29.93 in 3.0 mi SE 12.7 mph 18.4 mph N/A Snow Light Snow
1:13 AM 24.8 °F 12.9 °F 21.2 °F 86% 29.93 in 3.0 mi SE 13.8 mph - N/A Snow Light Snow
1:32 AM 24.8 °F 12.4 °F 23.0 °F 93% 29.93 in 2.5 mi ESE 15.0 mph - N/A Snow Light Snow
1:53 AM 24.8 °F 11.5 °F 23.0 °F 93% 29.92 in 3.0 mi ESE 17.3 mph - N/A Snow Light Snow
2:13 AM 24.8 °F 11.1 °F 23.0 °F 93% 29.91 in 2.0 mi ESE 18.4 mph - N/A Snow Light Snow
2:32 AM 24.8 °F 11.5 °F 23.0 °F 93% 29.90 in 1.5 mi ESE 17.3 mph 21.9 mph N/A Snow Light Snow
2:53 AM 24.8 °F 12.4 °F 23.0 °F 93% 29.90 in 1.0 mi ESE 15.0 mph - N/A Snow Light Snow
3:12 AM 24.8 °F 11.5 °F 23.0 °F 93% 29.89 in 1.0 mi East 17.3 mph - N/A Snow Light Snow
3:33 AM 24.8 °F 12.9 °F 23.0 °F 93% 29.89 in 1.0 mi East 13.8 mph - N/A Snow Light Snow
3:53 AM 24.8 °F 12.4 °F 23.0 °F 93% 29.88 in 1.0 mi ESE 15.0 mph 19.6 mph N/A Snow Light Snow
4:12 AM 24.8 °F 11.9 °F 23.0 °F 93% 29.88 in 1.0 mi ESE 16.1 mph - N/A Snow Snow
4:33 AM 24.8 °F 12.4 °F 23.0 °F 93% 29.89 in 1.0 mi ESE 15.0 mph - N/A Snow Snow
4:53 AM 24.8 °F 11.9 °F 23.0 °F 93% 29.89 in 1.0 mi ESE 16.1 mph 19.6 mph N/A Snow Light Snow
5:12 AM 24.8 °F 11.9 °F 23.0 °F 93% 29.89 in 1.0 mi ESE 16.1 mph - N/A Snow Snow
5:33 AM 24.8 °F 11.5 °F 23.0 °F 93% 29.90 in 1.2 mi ESE 17.3 mph - N/A Snow Light Snow
5:53 AM 24.8 °F 11.5 °F 23.0 °F 93% 29.89 in 0.8 mi East 17.3 mph - N/A Snow Snow
6:12 AM 24.8 °F 11.5 °F 23.0 °F 93% 29.89 in 1.5 mi East 17.3 mph - N/A Snow Light Snow
6:33 AM 24.8 °F 11.1 °F 23.0 °F 93% 29.89 in 1.8 mi East 18.4 mph 24.2 mph N/A Snow Light Snow
6:53 AM 24.8 °F 11.5 °F 23.0 °F 93% 29.89 in 2.5 mi East 17.3 mph - N/A Snow Light Snow
7:12 AM 24.8 °F 11.5 °F 23.0 °F 93% 29.89 in 0.5 mi East 17.3 mph - N/A Snow Light Snow
7:33 AM 24.8 °F 11.9 °F 23.0 °F 93% 29.90 in 0.5 mi East 16.1 mph - N/A Snow Snow
7:52 AM 24.8 °F 10.7 °F 23.0 °F 93% 29.90 in 1.5 mi East 19.6 mph - N/A Snow Light Snow
8:13 AM 24.8 °F 11.5 °F 23.0 °F 93% 29.90 in 2.5 mi East 17.3 mph - N/A Snow Light Snow
8:33 AM 24.8 °F 11.5 °F 21.2 °F 86% 29.90 in 7.0 mi ESE 17.3 mph 24.2 mph N/A   Overcast
8:52 AM 24.8 °F 11.1 °F 23.0 °F 93% 29.89 in 3.0 mi ESE 18.4 mph - N/A   Overcast
9:13 AM 24.8 °F 10.0 °F 23.0 °F 93% 29.89 in 0.8 mi ESE 21.9 mph - N/A Snow Light Snow
9:32 AM 24.8 °F 10.3 °F 23.0 °F 93% 29.89 in 3.0 mi ESE 20.7 mph 26.5 mph N/A Snow Light Snow
9:53 AM 24.8 °F 10.7 °F 23.0 °F 93% 29.90 in 5.0 mi ESE 19.6 mph 26.5 mph N/A Snow Light Snow
10:13 AM 24.8 °F 10.3 °F 23.0 °F 93% 29.90 in 2.0 mi ESE 20.7 mph 25.3 mph N/A Snow Light Snow
10:32 AM 24.8 °F 11.5 °F 23.0 °F 93% 29.90 in 1.8 mi ESE 17.3 mph 26.5 mph N/A Snow Light Snow
10:53 AM 24.8 °F 10.7 °F 23.0 °F 93% 29.90 in 3.0 mi ESE 19.6 mph - N/A Snow Light Snow
11:13 AM 24.8 °F 10.7 °F 23.0 °F 93% 29.91 in 7.0 mi ESE 19.6 mph - N/A   Overcast
11:53 AM 24.8 °F 11.1 °F 23.0 °F 93% 29.91 in 10.0 mi ESE 18.4 mph - N/A   Overcast
12:13 PM 24.8 °F 11.1 °F 23.0 °F 93% 29.91 in 10.0 mi ESE 18.4 mph - N/A   Overcast
12:53 PM 24.8 °F 11.1 °F 23.0 °F 93% 29.91 in 7.0 mi SE 18.4 mph - N/A   Overcast
1:13 PM 24.8 °F 11.1 °F 23.0 °F 93% 29.91 in 7.0 mi ESE 18.4 mph - N/A   Overcast
1:32 PM 24.8 °F 11.5 °F 23.0 °F 93% 29.90 in 7.0 mi ESE 17.3 mph - N/A   Overcast
1:53 PM 24.8 °F 12.4 °F 21.2 °F 86% 29.90 in 10.0 mi ESE 15.0 mph - N/A   Overcast
2:13 PM 24.8 °F 10.7 °F 21.2 °F 86% 29.90 in 10.0 mi ESE 19.6 mph - N/A   Overcast
2:32 PM 24.8 °F 13.4 °F 21.2 °F 86% 29.91 in 10.0 mi ESE 12.7 mph - N/A   Overcast
2:53 PM 24.8 °F 11.1 °F 21.2 °F 86% 29.92 in 10.0 mi ESE 18.4 mph - N/A   Overcast
3:13 PM 24.8 °F 11.5 °F 21.2 °F 86% 29.91 in 10.0 mi ESE 17.3 mph - N/A   Overcast
3:32 PM 24.8 °F 11.5 °F 21.2 °F 86% 29.92 in 10.0 mi ESE 17.3 mph - N/A   Overcast
3:53 PM 24.8 °F 12.4 °F 19.4 °F 80% 29.92 in 10.0 mi ESE 15.0 mph - N/A   Overcast
4:13 PM 24.8 °F 11.9 °F 19.4 °F 80% 29.92 in 10.0 mi ESE 16.1 mph 21.9 mph N/A   Overcast
4:32 PM 24.8 °F 13.4 °F 19.4 °F 80% 29.92 in 7.0 mi ESE 12.7 mph - N/A   Overcast
4:53 PM 24.8 °F 13.4 °F 21.2 °F 86% 29.93 in 0.8 mi ESE 12.7 mph - N/A Snow Light Snow
5:13 PM 24.8 °F 14.0 °F 21.2 °F 86% 29.93 in 4.0 mi ESE 11.5 mph - N/A Snow Light Snow
5:32 PM 24.8 °F 12.4 °F 21.2 °F 86% 29.93 in 10.0 mi East 15.0 mph - N/A   Overcast
5:53 PM 24.8 °F 13.4 °F 19.4 °F 80% 29.93 in 10.0 mi ESE 12.7 mph - N/A   Overcast
6:13 PM 24.8 °F 14.6 °F 19.4 °F 80% 29.94 in 10.0 mi East 10.4 mph - N/A   Overcast
6:32 PM 24.8 °F 14.0 °F 19.4 °F 80% 29.95 in 10.0 mi ESE 11.5 mph - N/A   Overcast
6:53 PM 24.8 °F 15.3 °F 21.2 °F 86% 29.96 in 3.0 mi ESE 9.2 mph - N/A Snow Light Snow
7:12 PM 23.0 °F 13.1 °F 21.2 °F 93% 29.97 in 2.0 mi East 9.2 mph - N/A Snow Light Snow
7:33 PM 23.0 °F 13.9 °F 21.2 °F 93% 29.98 in 4.0 mi ESE 8.1 mph - N/A Snow Light Snow
7:53 PM 23.0 °F 14.7 °F 21.2 °F 93% 29.99 in 3.0 mi ESE 6.9 mph - N/A Snow Light Snow
8:13 PM 23.0 °F 14.7 °F 21.2 °F 93% 29.99 in 4.0 mi ESE 6.9 mph - N/A Snow Light Snow
8:32 PM 23.0 °F 14.7 °F 23.0 °F 100% 29.98 in 5.0 mi East 6.9 mph - N/A Snow Light Snow
8:53 PM 23.0 °F 13.9 °F 23.0 °F 100% 29.98 in 4.0 mi East 8.1 mph - N/A Snow Light Snow
9:13 PM 23.0 °F 13.9 °F 23.0 °F 100% 29.98 in 4.0 mi ESE 8.1 mph - N/A Snow Light Snow
9:32 PM 24.8 °F 16.1 °F 23.0 °F 93% 29.98 in 3.0 mi ESE 8.1 mph - N/A Snow Light Snow
9:53 PM 24.8 °F 15.3 °F 23.0 °F 93% 29.99 in 1.8 mi ESE 9.2 mph - N/A Snow Light Snow
10:13 PM 24.8 °F 14.6 °F 23.0 °F 93% 29.98 in 1.8 mi ESE 10.4 mph - N/A Snow Light Snow
10:32 PM 24.8 °F 14.6 °F 23.0 °F 93% 29.98 in 1.0 mi ESE 10.4 mph - N/A Snow Light Snow
10:53 PM 24.8 °F 15.3 °F 23.0 °F 93% 29.97 in 2.0 mi ESE 9.2 mph - N/A Snow Light Snow
11:13 PM 24.8 °F 15.3 °F 23.0 °F 93% 29.96 in 1.2 mi ESE 9.2 mph - N/A Snow Light Snow
11:32 PM 24.8 °F 15.3 °F 23.0 °F 93% 29.96 in 2.0 mi ESE 9.2 mph - N/A Snow Light Snow
11:53 PM 24.8 °F 16.1 °F 23.0 °F 93% 29.96 in 2.5 mi ESE 8.1 mph - N/A Snow Light Snow